{"data":{"norad_id":82741,"epoch":"2026-09-18T15:08:49.393536Z","epoch_age_seconds":183484,"freshness":"STALE","line1":"1 82741U          26261.63112724  .00002066  00000+0  22315-2 0  9993","line2":"2 82741 102.8455  32.4814 0193976 358.4821   1.5701 13.67295960635317","mean_motion":13.6729596,"eccentricity":0.0193976,"inclination_deg":102.8455,"raan_deg":32.4814,"arg_perigee_deg":358.4821,"mean_anomaly_deg":1.5701,"bstar":0.0022315,"rev_number":63531,"period_min":105.31735938136,"perigee_km":865.99640394601,"apogee_km":1152.5933001322,"semimajor_km":7387.4318520391,"source":"CELESTRAK","updated_at":"2026-09-20T09:00:32.439275Z"}}